This demonstration page uses our WeatherBlox Daily Observations layout. Learn more.

Left ArrowRight Arrow

Hourly Observations for October 14, 2018

Temp ( °F °C ) Dew Point ( °F °C ) Humidity (%) Winds ( mph kmh ) Pressure ( in mb ) Visibility ( mi km ) Precip ( " mm )
12:26 am 00:26 Cloudy 58 14.4 58 14.4 100 100 Calm 29.83 1010 10 16 0.00 0.03
12:51 am 00:51 Cloudy 59 15 59 15 100 100 Calm 29.80 1009 10 16 0.01 0.25
1:51 am 01:51 Cloudy with Light Rain 59 15 58 14.4 96 96 Calm 29.79 1009 4 6 0.03 0.76
2:12 am 02:12 Cloudy with Light Rain 59 15 59 15 100 100 Calm 29.83 1010 6 10 0.00 0.00
2:51 am 02:51 Cloudy 58 14.4 58 14.4 100 100 W 3 6 29.79 1009 10 16 0.02 0.51
3:28 am 03:28 Partly Cloudy 57 14 57 14 100 100 NW 7 11 29.83 1010 10 16 0.00 0.00
3:51 am 03:51 Mostly Cloudy 57 13.9 56 13.3 96 96 NW 10 17 29.80 1009 10 16 0.00 0.00
3:59 am 03:59 Mostly Cloudy 56 13.3 56 13.3 100 100 WNW 12 19 29.83 1010 10 16 0.00 0.00
4:51 am 04:51 Cloudy 56 13.3 55 12.8 97 97 W 10 17 29.82 1010 10 16 0.00 0.00
5:51 am 05:51 Cloudy 55 12.8 55 12.8 100 100 WNW 9 15 29.84 1011 10 16 0.00 0.00
6:51 am 06:51 Partly Cloudy 56 13.3 55 12.8 97 97 NNW 6 9 29.85 1011 10 16 0.00 0.00
7:51 am 07:51 Mostly Sunny 58 14.4 55 12.8 90 90 W 8 13 29.88 1012 10 16 0.00 0.00
8:51 am 08:51 Cloudy 57 13.9 54 12.2 90 90 WNW 6 9 29.91 1013 10 16 0.00 0.00
9:51 am 09:51 Mostly Cloudy 63 17.2 54 12.2 73 73 Calm 29.89 1012 10 16 0.00 0.00
10:51 am 10:51 Mostly Cloudy 63 17.2 54 12.2 73 73 WNW 7 11 29.88 1012 10 16 0.00 0.00
11:51 am 11:51 Sunny 67 19.4 52 11.1 59 59 W 10 17 29.86 1011 10 16 0.00 0.00
12:51 pm 12:51 Partly Cloudy 68 20 49 9.4 51 51 undefined N/A 29.83 1010 10 16 0.00 0.00
1:51 pm 13:51 Sunny 69 20.6 51 10.6 53 53 W 9 15 29.82 1010 10 16 0.00 0.00
2:51 pm 14:51 Sunny 70 21.1 50 10 49 49 WNW 9 15 29.82 1010 10 16 0.00 0.00
3:51 pm 15:51 Sunny 70 21.1 50 10 49 49 WNW 10 17 29.81 1010 10 16 0.00 0.00
4:51 pm 16:51 Sunny 66 18.9 50 10 56 56 WNW 8 13 29.83 1010 10 16 0.00 0.00
5:51 pm 17:51 Cloudy 65 18.3 51 10.6 61 61 W 8 13 29.84 1010 10 16 0.00 0.00
6:51 pm 18:51 Cloudy 64 17.8 54 12.2 70 70 W 6 9 29.85 1011 10 16 0.00 0.00
7:51 pm 19:51 Cloudy 63 17.2 54 12.2 73 73 W 5 7 29.87 1011 10 16 0.00 0.00
8:51 pm 20:51 Partly Cloudy 60 15.6 55 12.8 84 84 NW 5 7 29.88 1012 10 16 0.00 0.00
9:51 pm 21:51 Mostly Clear 58 14.4 55 12.8 90 90 WNW 6 9 29.88 1012 10 16 0.00 0.00
10:51 pm 22:51 Clear 57 13.9 54 12.2 90 90 NW 6 9 29.89 1012 10 16 0.00 0.00
11:51 pm 23:51 Clear 56 13.3 53 11.7 90 90 Calm 29.89 1012 10 16 0.00 0.00

Powered by AerisWeather